Regional Weather Roundup
Issued by NWS

Home | Current Version | Previous Version | Text Only | Print | Product List | Glossary Off
Versions: 1 2 3 4 5 6 7 8 9 10 11 12 13 14 15 16 17 18 19 20 21 22 23 24 25 26 27 28 29 30 31 32 33 34 35 36 37 38 39 40 41 42 43 44 45 46 47 48 49 50

000
ASUS43 KFSD 241710
RWRSD

WEATHER ROUNDUP FOR SOUTH DAKOTA
NATIONAL WEATHER SERVICE SIOUX FALLS SD
1200 PM CDT TUE APR 24 2018

NOTE: "FAIR" INDICATES FEW OR NO CLOUDS BELOW 12,000 FEET WITH NO
SIGNIFICANT WEATHER AND/OR OBSTRUCTIONS TO VISIBILITY.


SDZ001>005-009-010-012>017-241800-
NORTHWEST AND NORTH CENTRAL SOUTH DAKOTA

CITY           SKY/WX    TMP DP  RH WIND       PRES   REMARKS
BUFFALO          N/A     45  28  51 N13       30.43R
FAITH            N/A     43  35  73 N17G26    30.44R
MOBRIDGE       CLOUDY    45  37  73 N12       30.40S
$$

SDZ012>016-024>037-041>051-057-063-072>074-241800-
SOUTHWEST AND SOUTH CENTRAL SOUTH DAKOTA

CITY           SKY/WX    TMP DP  RH WIND       PRES   REMARKS
RAPID CTY ARPT LGT RAIN  40  33  76 N25       30.46R
PIERRE         CLOUDY    37  37 100 N17       30.40R
CUSTER         CLOUDY    33  18  53 NE12G18   30.41R WCI  24
ELLSWORTH AFB  CLOUDY    40  33  75 N20G28    30.45
PHILIP         CLOUDY    39  35  86 N20G29    30.45R
PINE RIDGE     FLURRIES  36  33  89 N15G24    30.46R
SPEARFISH      CLOUDY    36  30  80 NW13      30.50S
WINNER         LGT RAIN  42  38  85 N20       30.33R FOG
$$

SDZ004>011-016>023-039-040-241800-
NORTHEAST SOUTH DAKOTA

CITY           SKY/WX    TMP DP  RH WIND       PRES   REMARKS
ABERDEEN       LGT RAIN  42  39  89 N21       30.39R
WATERTOWN      CLOUDY    42  40  92 NE22      30.28R
BROOKINGS      LGT RAIN  44  40  85 NE20G29   30.24S
SISSETON         N/A     44  41  89 N16       30.34R
$$

SDZ017-020-022-023-036>040-048>070-241800-
SOUTHEAST SOUTH DAKOTA

CITY           SKY/WX    TMP DP  RH WIND       PRES   REMARKS
SIOUX FALLS    LGT RAIN  48  38  68 N20G29    30.23R
HURON          CLOUDY    45  40  82 N17       30.30R
CHAMBERLAIN    CLOUDY    44  42  93 N18G26    30.32R
MITCHELL       CLOUDY    47  41  80 NE18G29   30.26R
YANKTON        LGT RAIN  49  47  93 W9        30.21R
$$

ABBREVIATIONS USED IN REMARKS
   TC - TEMPERATURE IN CELSIUS
  WCI - WIND CHILL INDEX
   HX - HEAT INDEX
  VSB - VISIBILITY




USA.gov is the U.S. government's official web portal to all federal, state and local government web resources and services.